International Skating Union - Official Site

ESSENT ISU WORLD DISTANCES CHAMPIONSHIPS 2011
March 10-13, 2011

Draw | Lap Times | Index | Classification

Referee: Hannu  KOIVU  (FIN)
Starter: Yoshihiro  KITAZAWA  (JPN)
StartTime: EndTime: Air Temp: Ice Temp: Humidity:
12:48 10.3℃ -10℃ 37%
Result 10000m Men
Rankings as of Mar 12 2011 6:42PM
Rank: No.: Name: Nation: Time: Behind: Points:
1 119 Bob  de JONG NED NED 12:48.20400m - 35.66 - (35.6)
800m - 1:06.53 - (30.8)
1200m - 1:37.70 - (31.1)
1600m - 2:08.98 - (31.2)
2000m - 2:39.79 - (30.8)
2400m - 3:10.60 - (30.8)
2800m - 3:41.27 - (30.6)
3200m - 4:12.12 - (30.8)
3600m - 4:42.78 - (30.6)
4000m - 5:13.74 - (30.9)
4400m - 5:44.57 - (30.8)
4800m - 6:15.42 - (30.8)
5200m - 6:45.95 - (30.5)
5600m - 7:16.73 - (30.7)
6000m - 7:47.31 - (30.5)
6400m - 8:17.69 - (30.3)
6800m - 8:47.96 - (30.2)
7200m - 9:18.27 - (30.3)
7600m - 9:48.39 - (30.1)
8000m - 10:18.51 - (30.1)
8400m - 10:48.38 - (29.8)
8800m - 11:18.43 - (30.0)
9200m - 11:48.52 - (30.0)
9600m - 12:18.41 - (29.8)
10000m - 12:48.20 - (29.7)
38.410
2 127 Bob  de VRIES NED NED 13:04.62400m - 34.83 - (34.8)
800m - 1:05.16 - (30.3)
1200m - 1:36.19 - (31.0)
1600m - 2:07.00 - (30.8)
2000m - 2:38.03 - (31.0)
2400m - 3:09.03 - (31.0)
2800m - 3:39.98 - (30.9)
3200m - 4:10.91 - (30.9)
3600m - 4:41.88 - (30.9)
4000m - 5:12.92 - (31.0)
4400m - 5:44.18 - (31.2)
4800m - 6:15.36 - (31.1)
5200m - 6:46.95 - (31.5)
5600m - 7:18.44 - (31.5)
6000m - 7:50.00 - (31.5)
6400m - 8:21.30 - (31.3)
6800m - 8:52.71 - (31.4)
7200m - 9:23.92 - (31.2)
7600m - 9:55.75 - (31.8)
8000m - 10:27.22 - (31.4)
8400m - 10:58.95 - (31.7)
8800m - 11:30.36 - (31.4)
9200m - 12:01.37 - (31.0)
9600m - 12:32.39 - (31.0)
10000m - 13:04.62 - (32.2)
16.42 39.231
3 142 Ivan  SKOBREV RUS RUS 13:08.17400m - 35.78 - (35.7)
800m - 1:07.16 - (31.3)
1200m - 1:38.60 - (31.4)
1600m - 2:09.73 - (31.1)
2000m - 2:40.93 - (31.2)
2400m - 3:12.29 - (31.3)
2800m - 3:43.59 - (31.3)
3200m - 4:14.91 - (31.3)
3600m - 4:46.45 - (31.5)
4000m - 5:17.90 - (31.4)
4400m - 5:49.41 - (31.5)
4800m - 6:20.78 - (31.3)
5200m - 6:52.16 - (31.3)
5600m - 7:23.17 - (31.0)
6000m - 7:54.46 - (31.2)
6400m - 8:25.43 - (30.9)
6800m - 8:56.48 - (31.0)
7200m - 9:27.71 - (31.2)
7600m - 9:59.23 - (31.5)
8000m - 10:30.77 - (31.5)
8400m - 11:02.25 - (31.4)
8800m - 11:33.82 - (31.5)
9200m - 12:05.61 - (31.7)
9600m - 12:36.92 - (31.3)
10000m - 13:08.17 - (31.2)
19.97 39.408
4 114 Seung-Hoon  LEE KOR KOR 13:08.83400m - 35.58 - (35.5)
800m - 1:06.81 - (31.2)
1200m - 1:37.71 - (30.9)
1600m - 2:08.90 - (31.1)
2000m - 2:40.13 - (31.2)
2400m - 3:10.81 - (30.6)
2800m - 3:41.85 - (31.0)
3200m - 4:12.53 - (30.6)
3600m - 4:43.40 - (30.8)
4000m - 5:14.10 - (30.7)
4400m - 5:44.92 - (30.8)
4800m - 6:15.65 - (30.7)
5200m - 6:46.56 - (30.9)
5600m - 7:17.18 - (30.6)
6000m - 7:47.86 - (30.6)
6400m - 8:18.30 - (30.4)
6800m - 8:48.85 - (30.5)
7200m - 9:19.31 - (30.4)
7600m - 9:50.00 - (30.6)
8000m - 10:21.33 - (31.3)
8400m - 10:53.05 - (31.7)
8800m - 11:25.75 - (32.7)
9200m - 11:59.55 - (33.8)
9600m - 12:33.87 - (34.3)
10000m - 13:08.83 - (34.9)
20.63 39.441
5 136 Shane  DOBBIN NZL NZL 13:17.56400m - 35.28 - (35.2)
800m - 1:06.62 - (31.3)
1200m - 1:38.78 - (32.1)
1600m - 2:11.14 - (32.3)
2000m - 2:43.34 - (32.2)
2400m - 3:15.11 - (31.7)
2800m - 3:46.70 - (31.5)
3200m - 4:18.52 - (31.8)
3600m - 4:50.37 - (31.8)
4000m - 5:22.39 - (32.0)
4400m - 5:54.42 - (32.0)
4800m - 6:26.29 - (31.8)
5200m - 6:58.06 - (31.7)
5600m - 7:29.91 - (31.8)
6000m - 8:01.54 - (31.6)
6400m - 8:33.10 - (31.5)
6800m - 9:04.75 - (31.6)
7200m - 9:36.42 - (31.6)
7600m - 10:08.16 - (31.7)
8000m - 10:39.70 - (31.5)
8400m - 11:11.11 - (31.4)
8800m - 11:42.55 - (31.4)
9200m - 12:14.22 - (31.6)
9600m - 12:45.97 - (31.7)
10000m - 13:17.56 - (31.6)
29.36 39.878
6 107 Dmitry  BABENKO KAZ KAZ 13:19.59400m - 35.47 - (35.4)
800m - 1:07.97 - (32.5)
1200m - 1:40.41 - (32.4)
1600m - 2:12.61 - (32.2)
2000m - 2:44.50 - (31.8)
2400m - 3:16.58 - (32.0)
2800m - 3:49.08 - (32.5)
3200m - 4:21.01 - (31.9)
3600m - 4:53.05 - (32.0)
4000m - 5:25.05 - (32.0)
4400m - 5:57.47 - (32.4)
4800m - 6:29.58 - (32.1)
5200m - 7:01.57 - (32.0)
5600m - 7:33.72 - (32.1)
6000m - 8:05.68 - (31.9)
6400m - 8:37.50 - (31.8)
6800m - 9:09.04 - (31.5)
7200m - 9:40.55 - (31.5)
7600m - 10:12.52 - (31.9)
8000m - 10:44.25 - (31.7)
8400m - 11:15.46 - (31.2)
8800m - 11:46.68 - (31.2)
9200m - 12:18.14 - (31.4)
9600m - 12:49.44 - (31.3)
10000m - 13:19.59 - (30.1)
31.39 39.979
7 131 Håvard  BØKKO NOR NOR 13:22.86400m - 34.38 - (34.3)
800m - 1:05.27 - (30.8)
1200m - 1:36.43 - (31.1)
1600m - 2:08.02 - (31.5)
2000m - 2:39.12 - (31.1)
2400m - 3:10.06 - (30.9)
2800m - 3:41.18 - (31.1)
3200m - 4:12.40 - (31.2)
3600m - 4:43.94 - (31.5)
4000m - 5:15.82 - (31.8)
4400m - 5:47.88 - (32.0)
4800m - 6:20.04 - (32.1)
5200m - 6:52.27 - (32.2)
5600m - 7:24.65 - (32.3)
6000m - 7:57.08 - (32.4)
6400m - 8:29.57 - (32.5)
6800m - 9:02.09 - (32.5)
7200m - 9:34.89 - (32.8)
7600m - 10:07.39 - (32.5)
8000m - 10:40.06 - (32.6)
8400m - 11:12.81 - (32.7)
8800m - 11:45.84 - (33.0)
9200m - 12:18.53 - (32.6)
9600m - 12:51.05 - (32.5)
10000m - 13:22.86 - (31.8)
34.66 40.143
8 90 Marco  WEBER GER GER 13:26.84400m - 35.49 - (35.4)
800m - 1:07.75 - (32.2)
1200m - 1:40.46 - (32.7)
1600m - 2:12.57 - (32.1)
2000m - 2:44.97 - (32.4)
2400m - 3:17.10 - (32.1)
2800m - 3:49.19 - (32.0)
3200m - 4:21.17 - (31.9)
3600m - 4:53.58 - (32.4)
4000m - 5:25.94 - (32.3)
4400m - 5:58.14 - (32.2)
4800m - 6:30.39 - (32.2)
5200m - 7:02.97 - (32.5)
5600m - 7:35.30 - (32.3)
6000m - 8:07.66 - (32.3)
6400m - 8:39.52 - (31.8)
6800m - 9:11.58 - (32.0)
7200m - 9:43.63 - (32.0)
7600m - 10:15.95 - (32.3)
8000m - 10:48.07 - (32.1)
8400m - 11:20.47 - (32.4)
8800m - 11:52.38 - (31.9)
9200m - 12:24.45 - (32.0)
9600m - 12:56.14 - (31.6)
10000m - 13:26.84 - (30.7)
38.64 40.342
9 133 Henrik  CHRISTIANSEN NOR NOR 13:30.94400m - 35.64 - (35.6)
800m - 1:06.94 - (31.3)
1200m - 1:39.15 - (32.2)
1600m - 2:12.00 - (32.8)
2000m - 2:43.91 - (31.9)
2400m - 3:16.27 - (32.3)
2800m - 3:48.63 - (32.3)
3200m - 4:21.16 - (32.5)
3600m - 4:53.90 - (32.7)
4000m - 5:26.50 - (32.6)
4400m - 5:59.39 - (32.8)
4800m - 6:32.21 - (32.8)
5200m - 7:05.22 - (33.0)
5600m - 7:37.80 - (32.5)
6000m - 8:10.13 - (32.3)
6400m - 8:41.98 - (31.8)
6800m - 9:13.78 - (31.8)
7200m - 9:45.42 - (31.6)
7600m - 10:17.63 - (32.2)
8000m - 10:49.68 - (32.0)
8400m - 11:21.90 - (32.2)
8800m - 11:54.04 - (32.1)
9200m - 12:26.39 - (32.3)
9600m - 12:58.66 - (32.2)
10000m - 13:30.94 - (32.2)
42.74 40.547
10 153 Jonathan  KUCK USA USA 13:33.79400m - 35.64 - (35.6)
800m - 1:07.40 - (31.7)
1200m - 1:39.25 - (31.8)
1600m - 2:11.35 - (32.1)
2000m - 2:43.18 - (31.8)
2400m - 3:14.96 - (31.7)
2800m - 3:46.81 - (31.8)
3200m - 4:18.95 - (32.1)
3600m - 4:51.12 - (32.1)
4000m - 5:23.31 - (32.2)
4400m - 5:55.50 - (32.1)
4800m - 6:27.55 - (32.0)
5200m - 6:59.47 - (31.9)
5600m - 7:31.77 - (32.3)
6000m - 8:04.10 - (32.3)
6400m - 8:36.85 - (32.7)
6800m - 9:08.83 - (31.9)
7200m - 9:41.51 - (32.6)
7600m - 10:14.34 - (32.8)
8000m - 10:47.40 - (33.0)
8400m - 11:20.29 - (32.8)
8800m - 11:53.66 - (33.3)
9200m - 12:26.93 - (33.2)
9600m - 13:00.30 - (33.3)
10000m - 13:33.79 - (33.4)
45.59 40.689
11 96 Moritz  GEISREITER GER GER 13:33.86400m - 34.72 - (34.7)
800m - 1:06.22 - (31.5)
1200m - 1:38.24 - (32.0)
1600m - 2:10.43 - (32.2)
2000m - 2:42.79 - (32.3)
2400m - 3:15.36 - (32.5)
2800m - 3:47.74 - (32.3)
3200m - 4:20.32 - (32.5)
3600m - 4:53.00 - (32.6)
4000m - 5:25.72 - (32.7)
4400m - 5:58.49 - (32.7)
4800m - 6:31.32 - (32.8)
5200m - 7:04.19 - (32.8)
5600m - 7:36.90 - (32.7)
6000m - 8:09.48 - (32.5)
6400m - 8:41.79 - (32.3)
6800m - 9:13.83 - (32.0)
7200m - 9:45.94 - (32.1)
7600m - 10:17.90 - (31.9)
8000m - 10:49.93 - (32.0)
8400m - 11:22.11 - (32.1)
8800m - 11:55.00 - (32.8)
9200m - 12:28.29 - (33.2)
9600m - 13:01.30 - (33.0)
10000m - 13:33.86 - (32.5)
45.66 40.693
12 135 Øystein  GRØDUM NOR NOR 13:39.00400m - 36.68 - (36.6)
800m - 1:09.15 - (32.4)
1200m - 1:41.27 - (32.1)
1600m - 2:13.64 - (32.3)
2000m - 2:45.73 - (32.0)
2400m - 3:17.92 - (32.1)
2800m - 3:50.05 - (32.1)
3200m - 4:22.42 - (32.3)
3600m - 4:54.80 - (32.3)
4000m - 5:27.49 - (32.6)
4400m - 6:00.16 - (32.6)
4800m - 6:33.32 - (33.1)
5200m - 7:06.07 - (32.7)
5600m - 7:39.25 - (33.1)
6000m - 8:12.18 - (32.9)
6400m - 8:45.45 - (33.2)
6800m - 9:18.31 - (32.8)
7200m - 9:51.72 - (33.4)
7600m - 10:24.72 - (33.0)
8000m - 10:58.45 - (33.7)
8400m - 11:31.14 - (32.6)
8800m - 12:03.87 - (32.7)
9200m - 12:36.10 - (32.2)
9600m - 13:07.82 - (31.7)
10000m - 13:39.00 - (31.1)
50.80 40.950
13 68 Joshua  LOSE AUS AUS 13:39.71400m - 35.78 - (35.7)
800m - 1:07.50 - (31.7)
1200m - 1:39.08 - (31.5)
1600m - 2:11.80 - (32.7)
2000m - 2:44.29 - (32.4)
2400m - 3:16.81 - (32.5)
2800m - 3:49.42 - (32.6)
3200m - 4:22.21 - (32.7)
3600m - 4:54.84 - (32.6)
4000m - 5:27.46 - (32.6)
4400m - 6:00.07 - (32.6)
4800m - 6:32.64 - (32.5)
5200m - 7:05.12 - (32.4)
5600m - 7:37.53 - (32.4)
6000m - 8:10.25 - (32.7)
6400m - 8:42.80 - (32.5)
6800m - 9:15.82 - (33.0)
7200m - 9:48.88 - (33.0)
7600m - 10:21.83 - (32.9)
8000m - 10:54.90 - (33.0)
8400m - 11:27.93 - (33.0)
8800m - 12:01.12 - (33.1)
9200m - 12:34.24 - (33.1)
9600m - 13:06.77 - (32.5)
10000m - 13:39.71 - (32.9)
51.51 40.985
14 95 Alexej  BAUMGÄRTNER GER GER 13:40.74400m - 35.78 - (35.7)
800m - 1:07.11 - (31.3)
1200m - 1:39.40 - (32.2)
1600m - 2:11.70 - (32.3)
2000m - 2:43.94 - (32.2)
2400m - 3:16.28 - (32.3)
2800m - 3:49.13 - (32.8)
3200m - 4:21.77 - (32.6)
3600m - 4:54.54 - (32.7)
4000m - 5:27.20 - (32.6)
4400m - 6:00.08 - (32.8)
4800m - 6:32.65 - (32.5)
5200m - 7:05.61 - (32.9)
5600m - 7:38.33 - (32.7)
6000m - 8:11.23 - (32.9)
6400m - 8:44.05 - (32.8)
6800m - 9:17.06 - (33.0)
7200m - 9:49.97 - (32.9)
7600m - 10:23.11 - (33.1)
8000m - 10:56.49 - (33.3)
8400m - 11:29.77 - (33.2)
8800m - 12:02.78 - (33.0)
9200m - 12:35.75 - (32.9)
9600m - 13:08.52 - (32.7)
10000m - 13:40.74 - (32.2)
52.54 41.037
15 144 Aleksandr  RUMYANTSEV RUS RUS 13:44.32400m - 36.35 - (36.3)
800m - 1:08.57 - (32.2)
1200m - 1:41.33 - (32.7)
1600m - 2:13.67 - (32.3)
2000m - 2:46.16 - (32.4)
2400m - 3:18.14 - (31.9)
2800m - 3:50.22 - (32.0)
3200m - 4:22.45 - (32.2)
3600m - 4:54.85 - (32.4)
4000m - 5:27.28 - (32.4)
4400m - 5:59.93 - (32.6)
4800m - 6:32.62 - (32.7)
5200m - 7:05.54 - (32.9)
5600m - 7:38.37 - (32.8)
6000m - 8:11.09 - (32.7)
6400m - 8:44.11 - (33.0)
6800m - 9:17.25 - (33.1)
7200m - 9:50.50 - (33.2)
7600m - 10:23.76 - (33.2)
8000m - 10:57.50 - (33.7)
8400m - 11:30.70 - (33.1)
8800m - 12:03.41 - (32.7)
9200m - 12:36.31 - (32.9)
9600m - 13:09.52 - (33.2)
10000m - 13:44.32 - (34.7)
56.12 41.216
16 128 Arjen  van der KIEFT NED NED DQ400m - 34.64 - (34.6)
800m - 1:05.28 - (30.6)
1200m - 1:36.33 - (31.0)
1600m - 2:07.59 - (31.2)
2000m - 2:38.69 - (31.1)
2400m - 3:09.66 - (30.9)
2800m - 3:40.44 - (30.7)
3200m - 4:11.42 - (30.9)
3600m - 4:42.30 - (30.8)
4000m - 5:13.09 - (30.7)
4400m - 5:43.83 - (30.7)
4800m - 6:14.65 - (30.8)
5200m - 6:45.48 - (30.8)
5600m - 7:16.36 - (30.8)
6000m - 7:47.31 - (30.9)
6400m - 8:18.34 - (31.0)
6800m - 8:49.29 - (30.9)
7200m - 9:20.47 - (31.1)
7600m - 9:51.49 - (31.0)
8000m - 10:22.52 - (31.0)
8400m - 10:53.73 - (31.2)
8800m - 11:25.27 - (31.5)
9200m - 11:56.61 - (31.3)
9600m - 12:27.97 - (31.3)
10000m - 12:59.61 - (31.6)
-